Location: Althorst
(53.6379°N, 10.7715°E)
Time: 05:43:03
(UTC+00:00)

CORIOLIS - Pass Details

Date: 10 December 2019
Orbit: 818 x 839 km, 98.7° (Epoch: 19 January)

Event Time Altitude Azimuth Distance (km) Brightness Sun altitude
Rises 15:58:31 0° 145° (SE) 3,384 7.3 -8.4°
Reaches altitude 10° 16:00:55 10° 141° (SE) 2,454 6.5 -8.8°
Maximum altitude 16:06:11 53° 66° (ENE) 1,024 4.3 -9.5°
Drops below altitude 10° 16:11:30 10° 351° (N) 2,466 6.5 -10.2°
Sets 16:13:54 0° 347° (NNW) 3,403 7.2 -10.5°
